• In Russia
  • List of Countries
  • For 7 days
  • Water Temperature
  • Satellite Maps
  • Weather Map
  • Weather Widgets
  • user-avatar
    Login

    Hourly Weather Fier

    Today, 21 March, Thursday

    Time Temperature Precipitation Wind Pressure Humidity
    00:00 +15°C° 0 mm 2 mps 766 mmHg 70%
    01:00 +15°C° 0 mm 2 mps 766 mmHg 69%
    02:00 +14°C° 0 mm 2 mps 766 mmHg 68%
    03:00 +13°C° 0 mm 3 mps 766 mmHg 68%
    04:00 +13°C° 0 mm 3 mps 766 mmHg 67%
    05:00 +13°C° 0 mm 3 mps 766 mmHg 67%
    06:00 +13°C° 0 mm 3 mps 767 mmHg 66%
    07:00 +14°C° 0 mm 4 mps 767 mmHg 66%
    08:00 +17°C° 0 mm 4 mps 767 mmHg 58%
    09:00 +19°C° 0 mm 4 mps 767 mmHg 51%
    10:00 +21°C° 0 mm 4 mps 767 mmHg 44%
    11:00 +22°C° 0 mm 4 mps 767 mmHg 42%
    12:00 +22°C° 0 mm 4 mps 767 mmHg 40%
    13:00 +23°C° 0 mm 4 mps 767 mmHg 38%
    14:00 +22°C° 0 mm 4 mps 767 mmHg 39%
    15:00 +22°C° 0 mm 4 mps 766 mmHg 41%
    16:00 +21°C° 0 mm 4 mps 766 mmHg 42%
    17:00 +20°C° 0 mm 4 mps 766 mmHg 46%
    18:00 +18°C° 0 mm 4 mps 766 mmHg 50%
    19:00 +15°C° 0 mm 4 mps 767 mmHg 54%
    20:00 +14°C° 0 mm 4 mps 767 mmHg 56%
    21:00 +14°C° 0 mm 4 mps 768 mmHg 58%
    22:00 +13°C° 0 mm 3 mps 768 mmHg 59%
    23:00 +13°C° 0 mm 3 mps 768 mmHg 60%

    Tomorrow, 22 March, Friday

    Time Temperature Precipitation Wind Pressure Humidity
    00:00 +13°C° 0 mm 3 mps 768 mmHg 62%
    01:00 +12°C° 0 mm 3 mps 768 mmHg 63%
    02:00 +12°C° 0 mm 3 mps 768 mmHg 64%
    03:00 +12°C° 0 mm 3 mps 768 mmHg 65%
    04:00 +11°C° 0 mm 3 mps 768 mmHg 66%
    05:00 +12°C° 0 mm 3 mps 768 mmHg 66%
    06:00 +12°C° 0 mm 3 mps 768 mmHg 67%
    07:00 +12°C° 0 mm 3 mps 768 mmHg 67%
    08:00 +16°C° 0 mm 3 mps 768 mmHg 59%
    09:00 +18°C° 0 mm 3 mps 768 mmHg 52%
    10:00 +20°C° 0 mm 3 mps 768 mmHg 44%
    11:00 +21°C° 0 mm 3 mps 767 mmHg 41%
    12:00 +22°C° 0 mm 3 mps 767 mmHg 38%
    13:00 +24°C° 0 mm 3 mps 767 mmHg 35%
    14:00 +22°C° 0 mm 4 mps 766 mmHg 38%
    15:00 +22°C° 0 mm 4 mps 766 mmHg 40%
    16:00 +21°C° 0 mm 5 mps 765 mmHg 42%
    17:00 +19°C° 0 mm 4 mps 766 mmHg 50%
    18:00 +17°C° 0 mm 4 mps 766 mmHg 57%
    19:00 +14°C° 0 mm 4 mps 766 mmHg 65%
    20:00 +14°C° 0 mm 3 mps 766 mmHg 64%
    21:00 +13°C° 0 mm 3 mps 766 mmHg 63%
    22:00 +14°C° 0 mm 2 mps 766 mmHg 62%
    23:00 +14°C° 0 mm 2 mps 766 mmHg 60%

    Day after tomorrow, 23 March, Saturday

    Time Temperature Precipitation Wind Pressure Humidity
    00:00 +13°C° 0 mm 2 mps 766 mmHg 59%
    01:00 +13°C° 0 mm 2 mps 766 mmHg 57%
    02:00 +13°C° 0 mm 2 mps 766 mmHg 58%
    03:00 +13°C° 0 mm 2 mps 766 mmHg 59%
    04:00 +12°C° 0 mm 2 mps 765 mmHg 59%
    05:00 +13°C° 0 mm 2 mps 765 mmHg 60%
    06:00 +13°C° 0 mm 2 mps 765 mmHg 61%
    07:00 +14°C° 0 mm 2 mps 765 mmHg 62%
    08:00 +16°C° 0 mm 2 mps 765 mmHg 55%
    09:00 +18°C° 0 mm 2 mps 765 mmHg 48%
    10:00 +20°C° 0 mm 2 mps 765 mmHg 41%
    11:00 +21°C° 0 mm 2 mps 765 mmHg 39%
    12:00 +22°C° 0 mm 3 mps 764 mmHg 38%
    13:00 +23°C° 0 mm 4 mps 764 mmHg 37%
    14:00 +22°C° 0 mm 4 mps 764 mmHg 41%
    15:00 +21°C° 0 mm 5 mps 763 mmHg 44%
    16:00 +20°C° 0 mm 5 mps 763 mmHg 48%
    17:00 +18°C° 0 mm 4 mps 763 mmHg 56%
    18:00 +16°C° 0 mm 3 mps 764 mmHg 64%
    19:00 +14°C° 0 mm 2 mps 764 mmHg 72%
    20:00 +14°C° 0 mm 2 mps 764 mmHg 73%
    21:00 +14°C° 0 mm 1 mps 764 mmHg 73%
    22:00 +14°C° 0 mm 1 mps 765 mmHg 74%
    23:00 +13°C° 0 mm 1 mps 765 mmHg 72%

    24 March, Sunday

    Time Temperature Precipitation Wind Pressure Humidity
    00:00 +13°C° 0 mm 1 mps 765 mmHg 71%
    01:00 +13°C° 0 mm 1 mps 765 mmHg 69%
    02:00 +13°C° 0 mm 1 mps 765 mmHg 68%
    03:00 +13°C° 0 mm 1 mps 765 mmHg 66%
    04:00 +12°C° 0 mm 1 mps 765 mmHg 64%
    05:00 +13°C° 0 mm 1 mps 765 mmHg 62%
    06:00 +14°C° 0 mm 1 mps 765 mmHg 61%
    07:00 +15°C° 0 mm 1 mps 765 mmHg 60%
    08:00 +18°C° 0 mm 1 mps 765 mmHg 53%
    09:00 +20°C° 0 mm 1 mps 765 mmHg 46%
    10:00 +22°C° 0 mm 1 mps 765 mmHg 38%
    11:00 +21°C° 0 mm 2 mps 765 mmHg 39%
    12:00 +22°C° 0 mm 3 mps 764 mmHg 39%
    13:00 +22°C° 0 mm 4 mps 764 mmHg 39%
    14:00 +22°C° 0 mm 4 mps 764 mmHg 42%
    15:00 +21°C° 0 mm 4 mps 763 mmHg 45%
    16:00 +20°C° 0 mm 4 mps 763 mmHg 48%
    17:00 +18°C° 0 mm 3 mps 763 mmHg 56%
    18:00 +16°C° 0 mm 2 mps 763 mmHg 64%
    19:00 +14°C° 0 mm 1 mps 763 mmHg 73%
    20:00 +14°C° 0 mm 1 mps 764 mmHg 73%
    21:00 +13°C° 0 mm 1 mps 764 mmHg 73%
    22:00 +13°C° 0 mm 1 mps 764 mmHg 73%
    23:00 +12°C° 0 mm 0 mps 764 mmHg 73%

    25 March, Monday

    Time Temperature Precipitation Wind Pressure Humidity
    00:00 +12°C° 0 mm 0 mps 763 mmHg 72%
    01:00 +11°C° 0 mm 0 mps 763 mmHg 72%
    02:00 +11°C° 0 mm 0 mps 763 mmHg 72%
    03:00 +11°C° 0 mm 0 mps 763 mmHg 73%
    04:00 +11°C° 0 mm 0 mps 763 mmHg 74%
    05:00 +12°C° 0 mm 1 mps 763 mmHg 71%
    06:00 +13°C° 0 mm 1 mps 763 mmHg 69%
    07:00 +14°C° 0 mm 1 mps 763 mmHg 67%
    08:00 +15°C° 0 mm 1 mps 763 mmHg 61%
    09:00 +18°C° 0 mm 1 mps 763 mmHg 55%
    10:00 +19°C° 0 mm 2 mps 763 mmHg 50%
    11:00 +19°C° 0 mm 2 mps 762 mmHg 50%
    12:00 +20°C° 0 mm 3 mps 762 mmHg 51%
    13:00 +20°C° 0 mm 4 mps 761 mmHg 51%
    14:00 +20°C° 0 mm 4 mps 761 mmHg 54%
    15:00 +19°C° 0 mm 3 mps 760 mmHg 58%
    16:00 +19°C° 0 mm 3 mps 760 mmHg 61%
    17:00 +17°C° 0 mm 2 mps 760 mmHg 69%
    18:00 +15°C° 0 mm 2 mps 760 mmHg 77%
    19:00 +13°C° 0 mm 1 mps 761 mmHg 86%
    20:00 +13°C° 0 mm 1 mps 761 mmHg 86%
    21:00 +13°C° 0 mm 1 mps 761 mmHg 87%
    22:00 +12°C° 0 mm 1 mps 761 mmHg 87%
    23:00 +12°C° 0 mm 1 mps 761 mmHg 86%

    26 March, Tuesday

    Time Temperature Precipitation Wind Pressure Humidity
    00:00 +11°C° 0 mm 0 mps 761 mmHg 86%
    01:00 +11°C° 0 mm 0 mps 761 mmHg 85%
    02:00 +10°C° 0 mm 0 mps 761 mmHg 85%
    03:00 +10°C° 0 mm 0 mps 760 mmHg 86%
    04:00 +11°C° 0 mm 1 mps 760 mmHg 86%
    05:00 +12°C° 0 mm 1 mps 760 mmHg 83%
    06:00 +13°C° 0 mm 1 mps 761 mmHg 80%
    07:00 +13°C° 0 mm 1 mps 761 mmHg 76%
    08:00 +15°C° 0 mm 1 mps 761 mmHg 69%
    09:00 +17°C° 0 mm 2 mps 761 mmHg 62%
    10:00 +18°C° 0 mm 2 mps 760 mmHg 54%
    11:00 +19°C° 0.2 mm 4 mps 760 mmHg 51%
    12:00 +19°C° 0.2 mm 5 mps 760 mmHg 49%
    13:00 +20°C° 0.2 mm 7 mps 759 mmHg 46%
    14:00 +18°C° 0 mm 7 mps 759 mmHg 45%
    15:00 +17°C° 0 mm 8 mps 759 mmHg 44%
    16:00 +16°C° 0 mm 8 mps 759 mmHg 43%
    17:00 +14°C° 0 mm 7 mps 759 mmHg 50%
    18:00 +13°C° 0 mm 6 mps 760 mmHg 57%
    19:00 +10°C° 0 mm 5 mps 760 mmHg 63%
    20:00 +11°C° 0 mm 4 mps 760 mmHg 64%
    21:00 +11°C° 0 mm 4 mps 761 mmHg 64%
    22:00 +10°C° 0 mm 4 mps 761 mmHg 64%
    23:00 +10°C° 0 mm 4 mps 762 mmHg 62%
    Show more